This is the latest recevied weather packets stored in our database for station/object KD0RII. If no packets are shown the sender has not sent any weather packets the latest 10 day(s).
| Time | Temp. | Humidity | Pressure | Rain* | Wind** | Luminosity | Snow |
|---|---|---|---|---|---|---|---|
| 1777379997 | 8.89° C | 80% | 1019 hPa | 0 mm | - | 51 W/m² | - |
| 1777379693 | 8.89° C | 80% | 1019.2 hPa | 0 mm | - | 39 W/m² | - |
| 1777379389 | 8.89° C | 80% | 1019 hPa | 0 mm | - | 39 W/m² | - |
| 1777379084 | 8.89° C | 80% | 1019.3 hPa | 0 mm | - | 28 W/m² | - |
| 1777378779 | 8.89° C | 80% | 1019 hPa | 0 mm | - | 23 W/m² | - |
| 1777378477 | 8.89° C | 81% | 1018.9 hPa | 0 mm | - | 19 W/m² | - |
| 1777378172 | 8.89° C | 82% | 1018.6 hPa | 0 mm | - | 17 W/m² | - |
| 1777377865 | 8.89° C | 82% | 1018.5 hPa | 0 mm | - | 13 W/m² | - |
| 1777377564 | 8.89° C | 82% | 1018.7 hPa | 0 mm | - | 9 W/m² | - |
| 1777377260 | 8.89° C | 81% | 1018.4 hPa | 0 mm | - | 7 W/m² | - |
| 1777376958 | 8.89° C | 82% | 1018.2 hPa | 0 mm | - | 6 W/m² | - |
| 1777376655 | 8.89° C | 82% | 1018.1 hPa | 0 mm | - | 4 W/m² | - |
| 1777376352 | 8.33° C | 82% | 1018.1 hPa | 0 mm | - | 3 W/m² | - |
| 1777376046 | 8.33° C | 82% | 1017.8 hPa | 0 mm | - | 2 W/m² | - |
| 1777375746 | 8.33° C | 81% | 1018 hPa | 0 mm | - | 1 W/m² | - |
| 1777375442 | 8.33° C | 81% | 1018 hPa | 0 mm | - | 1 W/m² | - |
| 1777375138 | 8.33° C | 81% | 1018 hPa | 0 mm | - | 0 W/m² | - |
| 1777374838 | 8.33° C | 81% | 1018.4 hPa | 0 mm | - | 0 W/m² | - |
| 1777374534 | 8.33° C | 81% | 1018.7 hPa | 0 mm | - | 0 W/m² | - |
| 1777374231 | 8.89° C | 81% | 1018.4 hPa | 0 mm | - | 0 W/m² | - |
| 1777373927 | 8.89° C | 81% | 1018.5 hPa | 0 mm | - | 0 W/m² | - |
| 1777373624 | 8.89° C | 82% | 1018.4 hPa | 0 mm | - | 0 W/m² | - |
| 1777373321 | 8.89° C | 82% | 1018.1 hPa | 0 mm | - | 0 W/m² | - |
| 1777373016 | 8.89° C | 82% | 1018.1 hPa | 0 mm | - | 0 W/m² | - |
| 1777372712 | 8.89° C | 82% | 1017.9 hPa | 0 mm | - | 0 W/m² | - |
* Rain latest hour (hover to see other rain measurements)
** Current wind speed in m/s (hover to see current wind gust speed)